Preview of NWS' New Version of Forecast
This preview is not operational and should not be used for support decisions.

Regional Weather Roundup (RWR)

Issued by National Weather Service (NWS)

                            
000
ASUS42 KTBW 211617
RWRFL 
FLORIDA REGIONAL WEATHER ROUNDUP
NATIONAL WEATHER SERVICE TAMPA BAY RUSKIN FL
1200 PM EDT TUE MAY 21 2019

NOTE: "FAIR" INDICATES FEW OR NO CLOUDS BELOW 12,000 FEET WITH NO
SIGNIFICANT WEATHER AND/OR OBSTRUCTIONS TO VISIBILITY.

FLZ001>010-012>015-112-114-115-211700-
PANHANDLE FLORIDA
  
CITY           SKY/WX    TMP DP  RH WIND       PRES   REMARKS
PENSACOLA      FAIR      83  73  72 S17       29.95S                  
PENSACOLA NAS  PTSUNNY   83  72  69 S15       29.95R                  
MILTON NAS     FAIR      83  67  58 S10       29.95S                  
CRESTVIEW      FAIR      85  60  42 S12G17    29.98R                  
DUKE FIELD     FAIR      84  60  44 SE13G22   29.96R                  
VALPARAISO     FAIR      83  68  60 S13       29.96S                  
MARY ESTHER    MOSUNNY   83  69  60 S12       29.95R                  
PANAMA CITY    FAIR      85  65  51 SE9G17    29.97S                  
TYNDALL AFB    SUNNY     82  70  65 S10       29.97R                  
APALACHICOLA   FAIR      84  67  56 S10       29.98S                  

STATION/POSITION SKY/WX   TEMP    WIND        PRES    WAVE   SWELL
                          AIR SEA DIR/SP/G            HT/PER HT/PER
                          (F)     (DEG/KT/KT) (MB)    (FT/S) (FT/S)
30.1N   87.6W                                   N/A     2/ 6
29.2N   88.2W                     150/ 10/ 14 1014.0R   2/ 5   2/ 6
PANAMA CITY BEAC           79 81  170/  9/ 11 1015.5R
TOWER C          NOT AVBL

$$
FLZ011-016>038-118-127-128-134-139-239-211700-
NORTH FLORIDA
  
CITY           SKY/WX    TMP DP  RH WIND       PRES   REMARKS
MARIANNA       FAIR      87  62  43 S12       29.96S                  
TALLAHASSEE    FAIR      87  67  51 S7        29.97S                  
PERRY          FAIR      89  65  44 S5        29.98F                  
LIVE OAK       SUNNY     88  63  42 VRB5      29.97F                  
CROSS CITY     FAIR      89  68  49 S10       29.98F                  
LAKE CITY      FAIR      88  61  40 SW5       29.99S                  
GAINESVILLE    FAIR      90  69  50 VRB3      30.01S                  
WILLISTON      FAIR      87  68  52 S5        29.98F                  
PALATKA        FAIR     N/A N/A N/A CALM      29.98F                  
MAYPORT NAS    FAIR      88  71  57 E7        29.98S                  
JACKSONVILLE   FAIR      88  66  48 CALM      29.97F                  
JAX NAS        FAIR      87  68  52 SE8       29.98F                  
JAX CECIL      MOSUNNY   95  68  41 VRB6      29.98S HX  99           
FERNANDINA BEA FAIR      87  70  57 S5        29.98S                  
ST AUGUSTINE   PTSUNNY   85  71  63 VRB3      29.99F                  
PALM COAST     PTSUNNY   84  70  61 CALM      29.99S                  

STATION/POSITION SKY/WX   TEMP    WIND        PRES    WAVE   SWELL
                          AIR SEA DIR/SP/G            HT/PER HT/PER
                          (F)     (DEG/KT/KT) (MB)    (FT/S) (FT/S)
SHELL POINT      NOT AVBL
KEATON BEACH               81     200/  7/  9 1015.4F
CEDAR KEY                  80     210/  4/  6 1015.6R
FERNANDINA                        310/  2/  3   N/A
30.7N   81.3W                 80                N/A     2/ 4
MAYPORT                    82 80   50/  5/  6 1015.6F
31.4N   80.9W              78 78  210/  8/ 10 1015.3S   2/ 5   2/ 5
ST AUGUSTINE               80 80  110/ 11/ 11 1015.6F

$$
FLZ040-043>046-052-053-057-058-063-144-211700-
INTERIOR CENTRAL FLORIDA
  
CITY           SKY/WX    TMP DP  RH WIND       PRES   REMARKS
OCALA          FAIR      87  69  54 CALM      29.99S                  
LEESBURG       FAIR      86  67  52 VRB7      29.99S                  
SANFORD        FAIR      86  69  56 E7        29.99S                  
ORLANDO EXEC   FAIR      86  66  51 S3        29.99S                  
ORLANDO INTL   FAIR      84  66  54 CALM      29.99S                  
KISSIMMEE      FAIR      84  72  67 SE9       30.00S                  
WINTER HAVEN   FAIR      88  68  51 SE5       30.00S                  
LAKELAND       MOSUNNY   84  70  61 CALM      29.99F                  
BARTOW         MOSUNNY   88  66  48 VRB5      29.98S                  
SEBRING        FAIR      86  69  55 E8        29.99S                  
OKEECHOBEE     FAIR      82  70  65 SE6       29.99S                  

$$
FLZ041-047-054-059-064-141-147-211700-
EAST CENTRAL FLORIDA
  
CITY           SKY/WX    TMP DP  RH WIND       PRES   REMARKS
ORMOND BEACH   MOSUNNY   84  68  58 CALM      29.99F                  
DAYTONA BEACH  FAIR      87  71  58 CALM      29.99F                  
DELAND         FAIR      86  66  51 W5        29.98F                  
NEW SMYRNA BEA MOSUNNY   90  70  51 VRB3      30.00F HX  95           
JFK SPACE CTR  FAIR      85  70  60 W3        29.99S                  
TITUSVILLE     MOSUNNY   88  70  55 E6        30.00F                  
CAPE CANAVERAL PTSUNNY   83  57  40 S8        29.99S                  
PATRICK AFB    FAIR      83  72  68 E10       30.00S                  
MELBOURNE      FAIR      85  71  63 E9        30.00R                  
VERO BEACH       N/A    N/A N/A N/A MISG      30.00S                  
FT PIERCE      FAIR      84  68  58 E9        29.99F                  
STUART         MOSUNNY   84  68  58 SE8       30.01S                  

STATION/POSITION SKY/WX   TEMP    WIND        PRES    WAVE   SWELL
                          AIR SEA DIR/SP/G            HT/PER HT/PER
                          (F)     (DEG/KT/KT) (MB)    (FT/S) (FT/S)
28.5N   80.2W              80     260/  2/  4 1016.7R   2/ 7   2/ 7
28.9N   78.5W              78 79  100/  2/  6 1017.1S   2/ 7   2/ 7
TRIDENT PIER               83 82  150/  6/  9 1017.4R
28.4N   80.5W                 81                N/A     2/ 7
27.5N   80.2W                 81                N/A     2/ 7

$$
FLZ050-056-061-142-242-148-248-149-249-151-251-155-255-
160-260-211700-
WEST CENTRAL FLORIDA
  
CITY           SKY/WX    TMP DP  RH WIND       PRES   REMARKS
CRYSTAL RIVER  FAIR      88  70  55 W6        29.98S                  
INVERNESS      FAIR      88  70  55 CALM      29.99S                  
BROOKSVILLE    FAIR      88  67  49 VRB3      29.99S                  
CLEARWATER AIR FAIR      84  68  58 NE3       29.97S                  
ST PETE CLEARW FAIR      85  72  65 E10       29.97S                  
TAMPA INTL     FAIR      86  71  60 SW9       29.98S                  
TAMPA EXEC     FAIR      88  68  51 CALM      29.99S                  
PLANT CITY     FAIR      88  68  51 CALM      30.01R                  
MACDILL AFB    FAIR      84  72  66 SW6       29.98S                  
PETER O KNIGHT CLOUDY    86  73  66 S6        29.99S                  
ST PETERSBURG  FAIR      84  72  67 SE6       29.96S                  
SARASOTA       FAIR      87  72  60 SW12      29.96S                  
VENICE         FAIR      86  75  70 S12       29.98S HX  95           

STATION/POSITION SKY/WX   TEMP    WIND        PRES    WAVE   SWELL
                          AIR SEA DIR/SP/G            HT/PER HT/PER
                          (F)     (DEG/KT/KT) (MB)    (FT/S) (FT/S)
27.3N   84.2W                 80                N/A     1/ 6
CLEARWATER BEACH           81 84  220/ 10/ 10 1015.2S
MIDDLE TAMPA BAY           81     280/  3/  4 1015.3S
VENICE                     81 82  180/  9/ 11 1015.1R

$$
FLZ066-069-070-075>078-162-262-165-265-211700-
SOUTHWEST FLORIDA AND KEYS
  
CITY           SKY/WX    TMP DP  RH WIND       PRES   REMARKS
PUNTA GORDA    FAIR      84  70  62 SW6       29.99S                  
FT MYERS       FAIR      85  69  58 SW7       29.96F                  
SOUTHWEST INTL FAIR      88  67  49 MISG      29.97S                  
NAPLES         PTSUNNY   84  72  67 SW8       29.97S                  
MARCO ISLAND   FAIR      86  70  58 S6        29.98S                  
IMMOKALEE      FAIR      88  68  51 E6        29.96S                  
MARATHON       FAIR      89  71  55 VRB5      29.97S HX  95           
KEY WEST NAS   FAIR      88  71  57 SE6       29.97S                  
KEY WEST INTL  FAIR      84  72  67 VRB6      29.97F                  

STATION/POSITION SKY/WX   TEMP    WIND        PRES    WAVE   SWELL
                          AIR SEA DIR/SP/G            HT/PER HT/PER
                          (F)     (DEG/KT/KT) (MB)    (FT/S) (FT/S)
NAPLES                     86 84              1014.9S
DRY TORTUGAS               81     130/  5/  7 1015.0F
SAND KEY                   81                 1015.0F
SOMBRERO KEY               81                 1014.5S

$$
FLZ067-068-071>074-168-172>174-211700-
SOUTHEAST FLORIDA 
  
CITY           SKY/WX    TMP DP  RH WIND       PRES   REMARKS
W PALM BEACH   FAIR      85  69  58 E12       29.99S                  
BOCA RATON     MOSUNNY   88  70  55 SE7G14    29.99S                  
FT LAUDER-EXEC FAIR      88  67  49 NE8       29.98S                  
FT LAUDERDALE  FAIR      85  69  58 SE12      29.98S                  
POMPANO BEACH  FAIR      86  68  54 SE9       29.98F                  
PEMBROKE PINES FAIR      86  66  51 E6        29.99S                  
OPA LOCKA      FAIR      87  70  56 SE9G16    29.98F                  
MIAMI          FAIR      88  70  55 E9G16     29.98S                  
WEST KENDALL   FAIR      88  68  51 E9        29.97F                  
HOMESTEAD      FAIR      86  71  60 NE9       29.97S                  

STATION/POSITION SKY/WX   TEMP    WIND        PRES    WAVE   SWELL
                          AIR SEA DIR/SP/G            HT/PER HT/PER
                          (F)     (DEG/KT/KT) (MB)    (FT/S) (FT/S)
PORT EVERGLADES            82     140/  5/  7 1015.4
VIRGINIA KEY               82 84   80/  7/  9 1014.9F
LAKE WORTH                 80 82              1016.8S
SETTLEMENT POINT           79      60/  6/  7 1016.3R

$$